Weather History for Long Prairie, MN

Change the Weather History Date:

Wednesday, November 21, 2012

  Actual Average (KAXN) Record (KAXN)
Temperature  
Mean Temperature 42 °F -  
Max Temperature 53 °F 33 °F 59 °F (1990)
Min Temperature 30 °F 18 °F -3 °F (1964)
Degree Days  
Heating Degree Days 24    
Moisture  
Dew Point 34 °F    
Average Humidity 76    
Maximum Humidity 93    
Minimum Humidity 54    
Precipitation  
Precipitation 0.00 in - - ()
Sea Level Pressure  
Sea Level Pressure 29.82 in    
Wind  
Wind Speed 5 mph (SE)    
Max Wind Speed 12 mph    
Max Gust Speed -    
Visibility 10 miles    
Events      
Averages and records for this station are not official NWS values.
T = Trace of Precipitation, MM = Missing Value Source: NWS Daily Summary

Daily Weather History Graph

Daily Weather History Graph

Search for Another Location

Airport:

Trip Planner

Search our weather history database for the weather conditions in past years. The results will help you decide how hot, cold, wet, or windy it might be!

Date:

Astronomy

Nov. 21, 2012 Rise Set
Actual Time 7:28 AM CST 4:42 PM CST
Civil Twilight 6:55 AM CST 5:15 PM CST
Nautical Twilight 6:18 AM CST 5:51 PM CST
Astronomical Twilight 5:43 AM CST 6:27 PM CST
Moon 1:16 PM CST (11/21) 12:28 AM CST (11/21)
Length of Visible Light 10h 19m
Length of Day
9h 13m
First Quarter, 62% of the Moon is Illuminated
Nov 21
First Quarter
Nov 28
Full
Dec 6
Last Quarter
Dec 13
New
Dec 19
First Quarter

Hourly Weather History & Observations

Time (CST) Temp. Windchill Dew Point Humidity Pressure Visibility Wind Dir Wind Speed Gust Speed Precip Events Conditions
12:15 AM 33.8 °F 28.6 °F 30.2 °F 87% 29.95 in 10.0 mi SE 5.8 mph - N/A   Clear
12:35 AM 33.8 °F 27.7 °F 30.2 °F 87% 29.94 in 10.0 mi SE 6.9 mph - N/A   Clear
12:55 AM 33.8 °F 27.7 °F 30.2 °F 87% 29.94 in 10.0 mi SSE 6.9 mph - N/A   Clear
1:15 AM 33.8 °F 27.7 °F 30.2 °F 87% 29.93 in 10.0 mi SE 6.9 mph - N/A   Clear
1:35 AM 33.8 °F 27.7 °F 30.2 °F 87% 29.93 in 10.0 mi SSE 6.9 mph - N/A   Clear
1:55 AM 33.8 °F 27.0 °F 30.2 °F 87% 29.92 in 10.0 mi SSE 8.1 mph - N/A   Clear
2:15 AM 33.8 °F 28.6 °F 30.2 °F 87% 29.91 in 10.0 mi SSE 5.8 mph - N/A   Clear
2:35 AM 33.8 °F 28.6 °F 30.2 °F 87% 29.91 in 10.0 mi SSE 5.8 mph - N/A   Clear
2:55 AM 33.8 °F 29.6 °F 30.2 °F 87% 29.91 in 10.0 mi SSE 4.6 mph - N/A   Clear
3:15 AM 33.8 °F 28.6 °F 30.2 °F 87% 29.91 in 10.0 mi SSE 5.8 mph - N/A   Clear
3:35 AM 33.8 °F 29.6 °F 30.2 °F 87% 29.91 in 10.0 mi South 4.6 mph - N/A   Clear
3:55 AM 33.8 °F 30.8 °F 30.2 °F 87% 29.91 in 10.0 mi South 3.5 mph - N/A   Clear
4:15 AM 33.8 °F 30.8 °F 30.2 °F 87% 29.90 in 10.0 mi South 3.5 mph - N/A   Clear
4:35 AM 32.0 °F 28.7 °F 30.2 °F 93% 29.90 in 10.0 mi South 3.5 mph - N/A   Clear
4:55 AM 32.0 °F 28.7 °F 30.2 °F 93% 29.90 in 10.0 mi South 3.5 mph - N/A   Clear
5:15 AM 32.0 °F - 30.2 °F 93% 29.90 in 10.0 mi Calm Calm - N/A   Clear
5:35 AM 30.2 °F 26.7 °F 28.4 °F 93% 29.90 in 10.0 mi South 3.5 mph - N/A   Clear
5:55 AM 32.0 °F - 30.2 °F 93% 29.90 in 10.0 mi Calm Calm - N/A   Clear
6:15 AM 32.0 °F 27.5 °F 28.4 °F 87% 29.90 in 10.0 mi SSE 4.6 mph - N/A   Clear
6:35 AM 32.0 °F 27.5 °F 30.2 °F 93% 29.91 in 10.0 mi South 4.6 mph - N/A   Clear
6:55 AM 32.0 °F 27.5 °F 30.2 °F 93% 29.90 in 10.0 mi South 4.6 mph - N/A   Clear
7:15 AM 32.0 °F - 30.2 °F 93% 29.90 in 10.0 mi Calm Calm - N/A   Clear
7:35 AM 32.0 °F - 30.2 °F 93% 29.90 in 10.0 mi Calm Calm - N/A   Clear
7:55 AM 32.0 °F - 30.2 °F 93% 29.91 in 10.0 mi Calm Calm - N/A   Clear
8:15 AM 32.0 °F - 30.2 °F 93% 29.91 in 7.0 mi Calm Calm - N/A   Clear
8:35 AM 32.0 °F - 30.2 °F 93% 29.91 in 10.0 mi Calm Calm - N/A   Clear
8:55 AM 33.8 °F - 32.0 °F 93% 29.91 in 10.0 mi Calm Calm - N/A   Clear
9:15 AM 33.8 °F - 32.0 °F 93% 29.91 in 10.0 mi Calm Calm - N/A   Clear
9:35 AM 35.6 °F - 32.0 °F 87% 29.90 in 10.0 mi Calm Calm - N/A   Clear
10:15 AM 37.4 °F - 33.8 °F 87% 29.89 in 10.0 mi Calm Calm - N/A   Clear
10:35 AM 41.0 °F - 33.8 °F 76% 29.89 in 10.0 mi Calm Calm - N/A   Clear
10:55 AM 44.6 °F 42.2 °F 35.6 °F 71% 29.88 in 10.0 mi SSE 4.6 mph - N/A   Clear
11:15 AM 44.6 °F 43.1 °F 35.6 °F 71% 29.88 in 10.0 mi SE 3.5 mph - N/A   Clear
11:35 AM 46.4 °F 45.2 °F 35.6 °F 66% 29.87 in 10.0 mi ESE 3.5 mph - N/A   Clear
11:55 AM 46.4 °F 42.9 °F 35.6 °F 66% 29.87 in 10.0 mi SE 6.9 mph - N/A   Clear
12:15 PM 50.0 °F - 35.6 °F 58% 29.86 in 10.0 mi SE 5.8 mph - N/A   Clear
12:35 PM 51.8 °F - 35.6 °F 54% 29.85 in 10.0 mi ESE 3.5 mph - N/A   Clear
1:15 PM 51.8 °F - 35.6 °F 54% 29.83 in 10.0 mi ESE 4.6 mph - N/A   Clear
1:35 PM 51.8 °F - 35.6 °F 54% 29.83 in 10.0 mi ESE 4.6 mph - N/A   Clear
1:55 PM 51.8 °F - 35.6 °F 54% 29.82 in 10.0 mi ESE 5.8 mph - N/A   Clear
2:15 PM 53.6 °F - 37.4 °F 54% 29.81 in 10.0 mi ESE 6.9 mph - N/A   Clear
2:35 PM 53.6 °F - 37.4 °F 54% 29.80 in 10.0 mi ESE 6.9 mph - N/A   Clear
2:55 PM 53.6 °F - 37.4 °F 54% 29.79 in 10.0 mi ESE 8.1 mph - N/A   Clear
3:15 PM 53.6 °F - 37.4 °F 54% 29.78 in 10.0 mi ESE 8.1 mph - N/A   Clear
3:35 PM 53.6 °F - 37.4 °F 54% 29.77 in 10.0 mi ESE 6.9 mph - N/A   Clear
3:55 PM 51.8 °F - 37.4 °F 58% 29.77 in 10.0 mi ESE 6.9 mph - N/A   Clear
4:15 PM 51.8 °F - 35.6 °F 54% 29.77 in 10.0 mi ESE 6.9 mph - N/A   Clear
4:35 PM 50.0 °F - 35.6 °F 58% 29.76 in 10.0 mi ESE 9.2 mph - N/A   Clear
4:55 PM 48.2 °F - 35.6 °F 62% 29.76 in 10.0 mi East 4.6 mph - N/A   Clear
5:15 PM 46.4 °F 44.3 °F 35.6 °F 66% 29.75 in 10.0 mi East 4.6 mph - N/A   Clear
5:35 PM 46.4 °F 44.3 °F 35.6 °F 66% 29.74 in 10.0 mi ESE 4.6 mph - N/A   Clear
6:15 PM 46.4 °F 42.9 °F 35.6 °F 66% 29.71 in 10.0 mi East 6.9 mph - N/A   Clear
6:35 PM 44.6 °F 40.7 °F 35.6 °F 71% 29.71 in 10.0 mi ESE 6.9 mph - N/A   Clear
6:55 PM 44.6 °F 41.4 °F 35.6 °F 71% 29.71 in 10.0 mi ESE 5.8 mph - N/A   Clear
7:15 PM 44.6 °F 40.7 °F 35.6 °F 71% 29.70 in 10.0 mi ESE 6.9 mph - N/A   Clear
7:35 PM 44.6 °F 40.7 °F 35.6 °F 71% 29.68 in 10.0 mi ESE 6.9 mph - N/A   Clear
7:55 PM 44.6 °F 41.4 °F 35.6 °F 71% 29.67 in 10.0 mi SE 5.8 mph - N/A   Clear
8:15 PM 44.6 °F 40.7 °F 35.6 °F 71% 29.67 in 10.0 mi SE 6.9 mph - N/A   Clear
8:35 PM 44.6 °F 40.2 °F 35.6 °F 71% 29.66 in 10.0 mi SE 8.1 mph - N/A   Clear
8:55 PM 44.6 °F 39.7 °F 35.6 °F 71% 29.65 in 10.0 mi SE 9.2 mph - N/A   Clear
9:15 PM 46.4 °F 41.9 °F 37.4 °F 71% 29.64 in 10.0 mi SE 9.2 mph - N/A   Clear
9:35 PM 46.4 °F 41.5 °F 37.4 °F 71% 29.63 in 10.0 mi SE 10.4 mph - N/A   Clear
9:55 PM 44.6 °F 40.2 °F 37.4 °F 76% 29.63 in 10.0 mi SSE 8.1 mph - N/A   Clear
10:15 PM 48.2 °F - 39.2 °F 71% 29.62 in 10.0 mi South 11.5 mph - N/A   Clear
10:55 PM 50.0 °F - 41.0 °F 71% 29.61 in 10.0 mi South 11.5 mph - N/A   Clear
11:15 PM 50.0 °F - 41.0 °F 71% 29.61 in 10.0 mi SSE 11.5 mph - N/A   Clear
11:35 PM 48.2 °F - 41.0 °F 76% 29.59 in 10.0 mi SSE 11.5 mph - N/A   Clear
11:55 PM 48.2 °F - 41.0 °F 76% 29.58 in 10.0 mi SSE 11.5 mph - N/A   Clear